Location: Dumpton Gap
(51.3472°N, 1.4417°E)
Time: 06:33:41
(UTC+00:00)

Daily predictions for brighter satellites

Satellite Brightness Start Highest point End
(mag) Time Altitude Azimuth Time Altitude Azimuth Time Altitude Azimuth
Ariane Rocket 3.1 19:06:30 10° SSE 19:11:35 90° ENE 19:16:41 10° NNW
Cosmos 1758 4.5 19:07:38 10° SSW 19:11:38 51° WNW 19:15:38 10° N
Cosmos 1140 Rocket 4.4 19:07:54 10° SSE 19:12:09 26° E 19:16:24 10° NE
SL-4 R/B 2.1 19:09:21 10° SW 19:12:33 39° SSE 19:15:47 10° E
Cosmos 1953 Rocket 3.7 19:09:17 10° N 19:13:43 57° ENE 19:18:09 10° SSE
Cosmos 1703 3.3 19:10:43 10° N 19:14:40 62° ENE 19:18:35 10° SSE
STARLINK-1246 3.8 19:10:48 10° WNW 19:14:57 74° N 19:19:06 10° E
Cosmos 1606 Rocket 3.8 19:12:24 10° S 19:16:43 52° E 19:21:05 10° NNE
Cosmos 1340 Rocket 3.8 19:14:37 10° SSE 19:18:05 28° E 19:21:32 10° NNE
STARLINK-1234 3.0 19:15:01 10° WNW 19:18:06 69° SSW 19:21:11 10° ESE
IRIDIUM 104 4.4 19:12:56 10° N 19:18:12 90° N 19:23:25 10° S
Cosmos 1328 3.8 19:14:20 10° N 19:18:20 66° ENE 19:22:20 10° SSE
STARLINK-1209 3.0 19:15:34 10° WNW 19:18:39 66° SSW 19:21:43 10° ESE
STARLINK-1203 3.8 19:14:41 10° WNW 19:18:54 77° N 19:23:07 10° E
STARLINK-1233 2.9 19:15:51 10° WNW 19:19:00 82° SSW 19:22:09 10° ESE
STARLINK-1212 2.9 19:16:18 10° WNW 19:19:27 81° SSW 19:22:35 10° ESE
STARLINK-1105 2.9 19:16:45 10° WNW 19:19:53 81° SSW 19:23:03 10° ESE
STARLINK-1224 3.7 19:15:48 10° WNW 19:19:57 75° N 19:24:06 10° E
STARLINK-1206 2.9 19:17:14 10° WNW 19:20:22 80° SSW 19:23:28 10° ESE
STARLINK-1247 2.9 19:17:41 10° WNW 19:20:49 80° SSW 19:23:55 10° ESE
STARLINK-1227 2.9 19:18:06 10° WNW 19:21:15 80° SSW 19:24:21 10° ESE
STARLINK-1218 2.9 19:18:36 10° WNW 19:21:43 79° SSW 19:24:47 10° ESE
MOS 1 4.3 19:16:13 10° SSE 19:21:52 85° ENE 19:27:36 10° NNW
Cosmos 614 Rocket 4.2 19:17:05 10° S 19:22:06 49° ESE 19:27:06 10° NNE
STARLINK-1226 2.9 19:19:01 10° WNW 19:22:09 79° SSW 19:25:13 10° ESE
STARLINK-1254 2.9 19:19:27 10° WNW 19:22:36 79° SSW 19:25:39 11° ESE
STARLINK-1215 2.9 19:19:57 10° WNW 19:23:04 78° SSW 19:26:05 11° ESE
Cosmos 2074 Rocket 4.1 19:17:07 10° N 19:23:26 86° W 19:29:44 10° S
ERBS 3.1 19:20:14 10° NW 19:23:29 43° NNE 19:26:45 10° E
STARLINK-1231 2.9 19:20:24 10° WNW 19:23:31 78° SSW 19:26:31 11° ESE
STARLINK-1232 2.9 19:21:17 10° WNW 19:24:25 77° SSW 19:27:23 11° ESE
Cosmos 1908 3.5 19:20:54 10° S 19:24:38 48° E 19:28:24 10° NNE
STARLINK-1217 2.9 19:21:45 10° WNW 19:24:52 76° SSW 19:27:50 11° ESE
STARLINK-1225 3.7 19:20:48 10° WNW 19:24:57 77° N 19:29:06 10° E
STARLINK-1208 2.9 19:22:10 10° WNW 19:25:19 76° SSW 19:28:16 11° ESE
STARLINK-1229 2.9 19:22:39 10° WNW 19:25:46 76° SSW 19:28:41 11° ESE
STARLINK-1271 2.9 19:23:06 10° WNW 19:26:14 75° SSW 19:29:08 12° ESE
STARLINK-1270 2.9 19:23:33 10° WNW 19:26:41 75° SSW 19:29:34 12° ESE
STARLINK-1154 2.9 19:24:00 10° WNW 19:27:07 75° SSW 19:29:59 12° ESE
APEX 4.5 19:20:32 10° NNW 19:27:15 84° WSW 19:32:43 10° SSE
STARLINK-1197 2.9 19:24:55 10° WNW 19:28:02 74° SSW 19:30:52 12° ESE
STARLINK-1189 2.9 19:25:21 10° WNW 19:28:28 73° SSW 19:31:17 12° ESE
STARLINK-1198 2.9 19:25:49 10° WNW 19:28:56 73° SSW 19:31:43 12° ESE
STARLINK-1188 2.9 19:26:15 10° WNW 19:29:23 73° SSW 19:32:09 12° ESE
STARLINK-1230 3.7 19:25:46 10° WNW 19:29:56 79° NNE 19:33:55 11° E
STARLINK-1235 3.1 19:26:55 10° WNW 19:30:02 62° SSW 19:32:50 12° ESE
Cosmos 1726 2.3 19:26:33 10° SSW 19:30:17 76° WNW 19:34:02 10° N
STARLINK-1187 3.0 19:27:19 10° WNW 19:30:28 67° SSW 19:33:15 13° ESE
STARLINK-67 3.6 19:28:43 10° W 19:31:05 33° SSW 19:33:19 11° SE
STARLINK-1199 3.0 19:28:12 10° WNW 19:31:20 71° SSW 19:34:04 13° ESE
SL-24 R/B 4.4 19:27:37 10° NNE 19:31:26 36° E 19:34:54 10° SSE
STARLINK-1191 3.0 19:28:39 10° WNW 19:31:47 71° SSW 19:34:30 13° ESE
Cosmos 1656 Rocket 4.4 19:26:37 10° NW 19:32:10 57° WSW 19:37:36 10° S
STARLINK-1210 3.0 19:29:06 10° WNW 19:32:14 70° SSW 19:34:56 13° ESE
STARLINK-1221 3.0 19:29:33 10° WNW 19:32:42 70° SSW 19:35:23 13° ESE
Cosmos 1943 3.3 19:27:01 10° SSW 19:32:43 85° WNW 19:38:28 10° NNE
STARLINK-1219 3.0 19:30:00 10° WNW 19:33:09 70° SSW 19:35:48 13° ESE
STARLINK-1222 3.0 19:30:27 10° WNW 19:33:35 69° SSW 19:36:14 14° ESE
STARLINK-1211 3.0 19:30:55 10° WNW 19:34:03 69° SSW 19:36:41 14° ESE
STARLINK-1214 3.0 19:31:22 10° WNW 19:34:29 68° SSW 19:37:06 14° ESE
Abrixas rocket 2.8 19:31:47 10° W 19:34:33 37° SSW 19:36:49 14° SE
STARLINK-1243 3.7 19:30:44 10° WNW 19:34:54 81° NNE 19:38:41 12° E
STARLINK-1245 3.0 19:31:51 10° WNW 19:34:57 68° SSW 19:37:31 14° ESE
STARLINK-1238 3.0 19:32:15 10° WNW 19:35:23 68° SSW 19:37:59 14° ESE
Meteor 2-10 4.4 19:30:09 10° SSW 19:35:40 81° WNW 19:41:25 10° NNE
BREEZE-M DEB (TANK) 4.3 19:29:07 10° W 19:36:04 49° SSW 19:38:39 13° SE
STARLINK-1205 3.0 19:33:12 10° WNW 19:36:19 67° SSW 19:38:50 14° ESE
STARLINK-1204 3.0 19:33:39 10° WNW 19:36:45 66° SSW 19:39:15 15° ESE
STARLINK-29 4.2 19:34:50 10° SSW 19:37:25 23° SE 19:39:27 13° E
STARLINK-1236 3.6 19:35:43 10° WNW 19:39:54 83° NNE 19:43:28 14° ESE
Cosmos 1610 Rocket 4.5 19:34:07 10° N 19:40:21 86° E 19:46:30 10° S
MetOp-A 4.2 19:36:16 10° SSE 19:41:35 70° ENE 19:46:57 10° NNW
CZ-2C R/B 3.2 19:37:00 10° NNE 19:41:45 35° E 19:46:29 10° SSE
STARLINK-60 3.4 19:39:03 10° SW 19:42:11 43° SSE 19:45:10 11° E
Cosmos 1697 Rocket 4.2 19:39:29 10° NNW 19:43:58 23° NE 19:48:22 10° E
Cosmos 1953 3.8 19:40:57 10° SW 19:44:43 41° WNW 19:48:32 10° N
Cosmos 407 Rocket 3.4 19:43:37 10° S 19:48:42 66° ESE 19:53:48 10° NNE
Terra 3.9 19:47:17 10° ENE 19:49:15 13° NE 19:51:14 10° NNE
Meteor 1-11 4.3 19:43:41 10° NNW 19:49:29 84° W 19:55:10 10° S
STARLINK-1269 3.6 19:45:41 10° WNW 19:49:50 88° N 19:53:02 17° ESE
ARGOS 3.7 19:44:47 10° S 19:50:07 63° WSW 19:55:29 10° NNW
Cosmos 676 Rocket 4.5 19:46:21 10° S 19:51:11 38° ESE 19:56:01 10° NE
STARLINK-1200 3.6 19:50:40 10° WNW 19:54:49 90° SW 19:57:49 18° ESE
CZ-2C R/B 3.7 19:53:16 10° NNE 19:58:00 68° ESE 20:02:35 10° S
SL-24 R/B - RUBIN 2 4.3 19:53:01 10° SSW 19:58:40 67° SE 20:05:00 10° NE
STARLINK-1192 3.6 19:55:39 10° WNW 19:59:48 87° SSW 20:02:36 20° ESE
SPOT 3 Rocket 3.7 19:55:12 10° SSE 20:00:25 80° WSW 20:05:40 10° NNW
Resurs 1-3 3.6 19:58:28 10° SSE 20:02:52 90° WSW 20:07:17 10° NNW
COSMOS 2455 3.0 19:58:16 10° NW 20:04:19 77° SW 20:09:33 14° SSE
STARLINK-1201 3.5 20:01:27 10° WNW 20:04:37 48° SSW 20:06:16 24° SE
STARLINK-1244 3.6 20:00:37 10° WNW 20:04:47 84° SSW 20:07:23 22° ESE
Cosmos 1656 4.3 20:02:10 10° NNW 20:07:35 42° NE 20:11:09 20° ESE
STARLINK-1138 3.6 20:05:36 10° WNW 20:09:46 81° SSW 20:12:10 24° ESE
STARLINK-1228 4.1 20:07:48 10° W 20:10:26 28° SSW 20:11:37 21° S
Cosmos 1023 Rocket 4.4 20:05:40 10° SSW 20:10:49 76° ESE 20:15:58 10° NNE
MOS 1 Rocket 3.6 20:05:46 10° NNE 20:11:09 66° E 20:16:34 10° S
Cosmos 1455 4.2 20:13:23 13° ENE 20:13:23 13° ENE 20:14:44 10° NE
FALCON 9 DEB 3.7 20:09:47 10° SW 20:13:03 38° SSE 20:14:16 28° ESE
Cosmos 1954 Rocket 4.1 20:08:21 10° S 20:13:27 55° ESE 20:18:31 10° NNE
Cosmos 1980 Rocket 3.8 20:09:18 10° NNW 20:13:39 22° NE 20:17:17 13° E
STARLINK-1143 3.6 20:10:35 10° WNW 20:14:43 78° SSW 20:16:56 27° ESE
IGS 5A 4.4 20:13:40 23° ESE 20:15:21 32° ENE 20:19:05 10° N
Cosmos 1892 3.5 20:12:12 10° N 20:15:49 34° ENE 20:17:05 27° ESE
Cosmos 1818 4.3 20:10:30 10° WSW 20:15:52 58° NW 20:21:17 10° NE
ATLAS CENTAUR R/B 2.9 20:14:06 10° NNW 20:17:24 24° NNE 20:19:27 16° ENE
STARLINK-52 3.4 20:14:43 10° SW 20:17:43 37° SSE 20:18:10 35° SE
Cosmos 2058 Rocket 3.3 20:14:29 10° SSW 20:18:59 74° W 20:23:31 10° N
STARLINK-1241 3.6 20:15:36 10° WNW 20:19:44 74° SSW 20:21:45 29° ESE
BREEZE M DEB (TANK) 3.8 20:18:01 10° SSW 20:21:25 35° SE 20:30:10 10° ENE
Cosmos 2341 Rocket 4.1 20:16:03 10° N 20:22:29 86° W 20:28:53 10° S
Cosmos 1825 3.8 20:20:14 10° NNE 20:22:58 19° ENE 20:23:21 18° ENE
CZ-4C R/B 3.6 20:17:11 10° NW 20:23:26 42° NNE 20:29:18 16° E
SPOT 1/Viking Rocket 4.1 20:21:22 24° ESE 20:24:03 42° ENE 20:28:58 10° N
ATLAS 5 CENTAUR R/B 1.5 20:20:05 10° SW 20:24:18 83° SE 20:29:09 10° NE
STARLINK-1239 3.6 20:20:33 10° WNW 20:24:41 71° SSW 20:26:30 32° SE
Cosmos 1763 Rocket 3.7 20:23:18 10° NNW 20:28:27 56° ENE 20:30:58 28° SE
STARLINK-1240 3.7 20:25:32 10° WNW 20:29:40 67° SSW 20:31:18 34° SE
Cosmos 921 Rocket 4.1 20:26:33 10° NW 20:30:30 40° WSW 20:34:07 12° S
Aureole 1 Rocket 4.5 20:27:14 10° SW 20:34:21 63° WNW 20:39:49 10° NNE
STARLINK-1216 3.7 20:30:31 10° WNW 20:34:38 64° SSW 20:36:05 37° SE
Cosmos 540 Rocket 4.3 20:30:05 10° NNW 20:34:50 36° NE 20:36:54 26° E
Cosmos 2218 Rocket 3.9 20:28:59 10° N 20:35:13 77° E 20:39:41 20° SSE
Resurs 01 Rocket 2.0 20:31:53 15° S 20:35:26 62° WSW 20:39:50 10° NNW
H-2A R/B 4.3 20:32:17 10° SW 20:36:18 23° W 20:40:17 10° NW
Meteor 2-12 Rocket 4.5 20:31:01 10° N 20:37:06 62° ENE 20:40:31 27° SSE
Cosmos 1300 2.8 20:35:22 10° SSW 20:39:10 75° W 20:43:01 10° N
Cosmos 1174 4.0 20:35:17 10° NW 20:39:19 84° SW 20:41:25 33° SSE
STARLINK-1237 3.8 20:35:29 10° WNW 20:39:34 61° SSW 20:40:51 40° SE
Iridium 4 Rocket 3.0 20:36:20 10° N 20:40:31 61° E 20:41:54 38° SSE
USA 234 3.6 20:36:59 10° ENE 20:42:59 37° SE 20:48:57 10° SSW
In-Cosmos 22 Rocket 4.3 20:37:49 10° NNW 20:43:43 88° WSW 20:47:33 23° S
Landsat 7 3.8 20:42:03 34° SE 20:44:04 65° ENE 20:48:48 10° N
STARLINK-1202 3.8 20:40:30 10° WNW 20:44:35 57° SSW 20:45:39 42° SSE
SAR-Lupe-2 3.4 20:41:29 10° NNE 20:45:05 72° ESE 20:46:11 41° S
Cosmos 220 Rocket 4.2 20:42:15 10° NNW 20:46:34 66° WSW 20:48:32 31° S
Cosmos 2082 Rocket 4.2 20:49:07 12° ENE 20:49:07 12° ENE 20:49:55 10° ENE
Cosmos 1812 Rocket 3.4 20:46:08 30° S 20:48:10 70° E 20:52:30 10° NNE
ATLAS 2AS CENTAUR R/B 4.4 20:43:13 10° WNW 20:49:22 28° WSW 20:55:08 10° SSW
SL-8 Rocket 4.2 20:43:09 10° NNW 20:49:28 75° W 20:54:31 17° S
USA 245 4.4 20:46:40 25° SSE 20:50:18 87° ENE 20:56:49 10° NNW
RESURS DK-1 2.6 20:46:45 10° NNW 20:50:51 55° NE 20:51:45 44° E
Cosmos 864 Rocket 4.4 20:45:18 10° N 20:51:34 90° ESE 20:55:29 24° S
SL-4 R/B 1.4 20:48:31 10° W 20:51:57 88° N 20:52:29 62° E
Cosmos 2058 2.9 20:48:24 10° NNW 20:52:32 81° W 20:54:04 38° S
Cosmos 1140 Rocket 4.2 20:48:34 10° SW 20:53:39 54° WNW 20:58:44 10° NNE
Cosmos 2181 Rocket 4.0 20:47:56 10° S 20:54:11 88° WNW 21:00:23 10° N
STARLINK-1246 3.9 20:50:27 10° WNW 20:54:29 51° SSW 20:55:12 45° S
Cosmos 1833 Rocket 3.9 20:56:28 24° E 20:56:28 24° E 20:59:56 10° NE
MetOp-B 4.3 20:53:18 23° S 20:56:39 70° WSW 21:02:02 10° NNW
USA 32 4.1 20:52:01 10° N 20:57:12 57° E 20:58:49 40° SE
Cosmos 2151 3.1 20:54:05 10° N 20:58:13 52° ENE 20:58:42 48° E
STARLINK-1203 4.1 20:54:35 10° WNW 20:58:37 46° SSW 20:59:14 43° S
STARLINK-1224 4.0 20:55:28 10° WNW 20:59:28 48° SSW 21:00:00 45° S
Meteor 2-10 Rocket 3.9 20:58:38 39° ESE 20:59:32 43° E 21:04:40 10° NNE
ERBS 2.8 20:56:36 10° WNW 20:59:49 46° SW 20:59:49 46° SW
Spot 2 Rocket 3.7 20:59:40 28° S 21:02:21 70° WSW 21:07:28 10° NNW
Cosmos 2366 rocket 4.1 20:56:52 10° NNW 21:03:00 74° W 21:06:58 23° S
BREEZE-M DEB (TANK) 2.9 21:00:23 10° W 21:02:11 29° WSW 21:02:11 29° WSW
STARLINK-1225 4.1 21:00:28 10° WNW 21:04:26 45° SSW 21:04:47 44° SSW
Cosmos 1850 Rocket 3.9 21:02:16 33° S 21:04:27 61° ESE 21:09:34 10° NNE
Cosmos 841 Rocket 3.6 21:01:27 10° NNW 21:06:44 65° ENE 21:08:11 45° ESE
Cosmos 1076 Rocket 4.1 21:05:11 10° NNW 21:09:22 54° W 21:11:05 32° SSW
STARLINK-1230 4.2 21:05:27 10° WNW 21:09:23 43° SSW 21:09:34 42° SSW
COSMOS 2406 3.3 21:08:16 40° SSE 21:09:44 51° ESE 21:15:16 10° NE
Cosmos 1408 2.5 21:08:11 10° N 21:11:46 78° NE 21:11:46 78° NE
STARLINK-29 4.2 21:10:04 10° WSW 21:11:59 33° WSW 21:11:59 33° WSW
STARLINK-1243 4.3 21:10:26 10° WNW 21:14:19 40° SSW 21:14:20 40° SSW
Cosmos 1408 Rocket 4.3 21:10:43 10° N 21:14:53 38° ENE 21:14:53 38° ENE
Nadezhda 3 Rocket 4.2 21:15:55 42° SE 21:17:35 53° E 21:23:39 10° NNE
Cosmos 468 Rocket 4.5 21:13:24 10° NNW 21:18:27 54° WSW 21:20:19 35° SSW
STARLINK-60 3.7 21:15:11 10° W 21:17:50 52° WNW 21:17:50 52° WNW
STARLINK-1236 4.5 21:15:26 10° WNW 21:19:07 38° SW 21:19:07 38° SW
CZ-2C R/B 3.8 21:17:18 10° N 21:22:07 40° WNW 21:26:57 10° SW
SPOT 5 2.4 21:22:33 72° SE 21:22:57 80° ENE 21:27:18 10° NNW
Cosmos 2369 3.6 21:20:17 10° NNW 21:25:58 80° ENE 21:27:19 54° SE
Terra 1.8 21:25:36 60° ESE 21:26:08 66° ENE 21:30:53 10° N
Cosmos 1570 Rocket 4.0 21:21:45 10° NNW 21:27:08 78° WSW 21:28:26 52° S
ERS-1 Rocket 3.0 21:27:10 52° S 21:28:24 79° WSW 21:33:28 10° NNW
Cosmos 1697 Rocket 2.6 21:23:05 10° NNW 21:28:48 84° ENE 21:30:07 55° SE
Cosmos-2242 2.9 21:33:27 86° E 21:33:27 86° E 21:37:50 10° NNE
Cosmos 2239 Rocket 4.4 21:33:03 10° N 21:39:19 80° ENE 21:40:56 53° SSE
Cosmos 1821 Rocket 4.0 21:37:38 10° N 21:44:03 85° W 21:45:57 49° S
Cosmos 1934 Rocket 3.9 21:40:42 10° N 21:46:58 67° ENE 21:48:02 57° SE
Cosmos 1455 2.8 21:48:16 55° NW 21:48:16 55° NW 21:51:41 10° N
Cosmos 1356 Rocket 3.7 21:48:19 61° W 21:48:33 63° WNW 21:52:47 10° N
SL-16 R/B 3.4 21:43:38 10° NNW 21:48:39 31° NE 21:50:12 27° ENE
Cosmos 2084 4.4 21:44:47 10° NW 21:49:02 41° NNE 21:49:17 41° NE
Cosmos 2360 Rocket 4.2 21:46:14 10° NNW 21:50:17 20° NNE 21:53:00 14° ENE
Cosmos 1656 4.4 21:45:56 10° NW 21:51:17 43° WSW 21:52:36 37° SW
Cosmos 2322 Rocket 3.5 21:51:23 10° NNW 21:56:20 30° NE 21:57:48 26° ENE
ATLAS CENTAUR R/B 2.2 21:52:49 10° NW 21:55:38 43° WNW 21:55:38 43° WNW
Mayak 0.2 21:54:07 10° NNE 21:56:22 29° NE 21:56:22 29° NE
Cosmos 1980 Rocket 2.0 21:52:53 10° NNW 21:58:33 81° ENE 21:59:03 73° ESE
Cosmos 1825 3.3 21:55:06 10° NNW 21:58:10 40° WNW 21:58:10 40° WNW
CARTOSAT-1 4.4 22:00:00 42° WSW 22:00:06 42° W 22:04:15 10° NNW
Meteor 2-3 Rocket 3.6 21:56:49 10° NNW 22:02:37 89° ENE 22:03:10 74° SSE
Cosmos 1605 Rocket 4.0 21:57:16 10° N 22:03:22 60° ENE 22:03:58 57° ESE
Thor Agena Rocket 4.3 22:04:15 10° NNE 22:07:59 40° ENE 22:07:59 40° ENE
ATLAS 5 CENTAUR R/B 3.7 22:05:34 10° W 22:09:32 29° NNW 22:14:01 10° NE
CZ-4C R/B 2.8 22:05:40 10° NW 22:12:42 82° SW 22:14:28 58° SSE
ALOS 2 4.2 22:16:03 26° NE 22:16:03 26° NE 22:19:02 10° N
Cosmos 540 Rocket 4.2 22:11:41 10° NW 22:16:33 42° WSW 22:16:44 42° WSW
Cosmos 2360 4.4 22:17:21 10° NW 22:22:55 57° WSW 22:23:03 57° WSW
Cosmos 1500 Rocket 4.3 22:18:56 10° N 22:22:11 50° N 22:22:11 50° N
USA 234 3.1 22:19:54 10° ENE 22:26:29 89° NNW 22:33:03 10° WSW
Cosmos 2278 4.0 22:22:06 10° NW 22:27:37 55° WSW 22:27:38 55° WSW
Cosmos 2082 Rocket 2.3 22:30:55 65° ENE 22:30:55 65° ENE 22:35:50 10° NNE
ASTEX 1 4.0 22:37:03 52° W 22:37:03 52° W 22:41:39 10° NNW
Cosmos 1833 Rocket 2.9 22:38:06 59° W 22:38:53 66° WNW 22:44:31 10° NNE
Cosmos 2344 4.3 22:35:10 10° NW 22:44:31 77° SW 22:48:33 48° SSE
Cosmos 2219 Rocket 4.3 22:44:02 10° NNW 22:48:05 20° NNE 22:50:59 14° ENE
Cosmos 1607 4.2 22:55:17 57° ENE 22:55:17 57° ENE 23:00:21 10° NE
Meteor 1-27 4.4 22:55:28 65° W 22:55:40 65° WNW 23:01:31 10° N
Cosmos 1486 Rocket 4.5 22:58:40 57° NNE 22:58:40 57° NNE 23:02:51 10° NNE
Terra 3.8 23:04:29 19° W 23:04:29 19° W 23:07:45 10° NW
Cosmos 968 Rocket 4.2 23:06:04 48° NE 23:06:04 48° NE 23:09:54 10° NNE
Cosmos 2221 4.0 23:11:04 36° NNW 23:11:04 36° NNW 23:14:04 10° N
Cosmos 1459 Rocket 4.0 23:06:40 10° N 23:12:56 74° ENE 23:12:56 74° ENE
NOSS 2-1 (C) 4.5 23:17:48 10° NW 23:21:45 62° NW 23:21:45 62° NW
Cosmos 1727 Rocket 4.0 23:24:37 77° WNW 23:24:37 77° WNW 23:30:56 10° N
Cosmos 2016 Rocket 4.1 23:25:24 10° N 23:31:34 71° ENE 23:31:34 71° ENE
Cosmos 1725 Rocket 4.2 23:25:55 10° N 23:32:04 60° ENE 23:32:04 60° ENE
SL-16 R/B 2.7 23:27:35 10° NW 23:32:03 52° WNW 23:32:03 52° WNW
Mayak 0.9 23:30:14 10° NNW 23:32:57 22° NW 23:32:57 22° NW
Cosmos 2360 Rocket 2.5 23:29:45 10° NNW 23:34:45 62° NNE 23:34:45 62° NNE
Cosmos 1802 Rocket 3.9 23:29:39 10° N 23:35:30 79° N 23:35:30 79° N
Nimbus 7 Rocket 4.4 23:30:25 10° NNE 23:35:57 76° NNW 23:35:57 76° NNW
Cosmos 2100 Rocket 4.1 23:33:20 10° NNW 23:39:10 69° WNW 23:39:10 69° WNW
Cosmos 2322 Rocket 2.7 23:35:15 10° NW 23:39:36 51° WNW 23:39:36 51° WNW
Cosmos 1980 Rocket 4.1 23:37:55 10° NW 23:40:49 19° W 23:40:49 19° W
MOS 1-B Rocket 4.2 23:37:24 10° NNE 23:43:26 69° E 23:43:26 69° E
Cosmos 2123 Rocket 4.3 23:45:08 56° ENE 23:45:08 56° ENE 23:50:39 10° NNE
Cosmos 2173 Rocket 4.1 23:40:48 10° NNW 23:46:21 64° WNW 23:46:21 64° WNW
ALOS 2 4.5 23:53:27 26° NW 23:53:27 26° NW 23:55:40 10° NNW
Cosmos 2333 Rocket 3.0 23:48:49 10° NNW 23:54:13 43° NE 23:54:43 42° ENE
ATLAS 5 CENTAUR R/B 4.3 23:51:52 10° NW 23:55:42 22° N 23:59:58 10° NE
